Theta_e
314 315 316 311 308 312 305 307 302 307 309 314 321 325 329 334 341 343 345 347 350 352 353 354 356 356 355 355 350 350 350 355
313 315 314 314 315 306 307 299 298 304 305 310 314 320 328 333 340 344 346 347 351 352 353 356 356 356 355 354 350 351 353 354
312 311 310 310 309 311 310 308 302 300 304 317 317 324 329 334 337 340 343 346 351 353 354 354 354 353 353 352 351 349 348 340
307 313 314 314 312 312 305 306 306 306 306 318 321 327 328 332 335 338 343 347 351 353 354 353 352 354 353 349 347 344 343 339
305 309 312 310 312 314 314 314 307 302 306 322 325 326 328 332 334 336 339 348 351 352 354 353 353 354 351 350 347 345 342 345
302 306 310 309 310 311 313 306 308 307 310 315 319 323 328 330 332 332 336 341 348 352 353 354 354 354 352 351 346 343 342 344
309 309 310 311 310 309 310 311 308 309 310 319 323 325 329 329 329 329 333 339 344 349 352 354 352 353 352 351 347 346 346 346
306 308 308 307 310 311 311 311 311 311 313 323 325 328 328 328 328 329 331 337 344 349 351 352 352 351 349 346 345 348 347 346
303 308 307 304 309 311 312 314 313 309 319 323 324 326 327 328 329 329 330 334 340 347 351 352 352 351 348 345 345 347 347 347
305 309 299 310 318 314 313 315 317 320 322 323 327 329 331 332 331 337 339 339 338 346 350 351 351 350 351 349 343 344 347 347
305 303 307 312 316 315 315 313 320 317 322 326 327 328 329 334 336 336 338 339 339 344 351 352 349 349 347 347 344 343 346 345
308 303 300 313 319 323 321 311 324 325 325 326 327 320 326 335 336 334 334 335 336 344 352 350 350 348 344 345 345 344 347 347
307 305 309 317 320 320 308 311 322 327 328 328 326 332 336 338 335 336 334 332 336 340 346 348 348 347 343 343 343 346 346 347
308 305 302 325 320 313 325 329 328 328 330 330 334 334 335 337 338 339 338 335 334 334 336 340 345 345 344 342 340 341 338 339
310 309 325 329 328 331 333 331 331 331 331 333 332 332 333 335 336 338 337 337 337 336 334 335 336 341 335 334 336 337 338 341
312 320 324 328 330 333 335 334 333 333 333 333 333 333 334 335 337 338 336 335 336 337 333 329 331 332 333 334 334 334 332 332
314 321 324 327 331 334 336 336 334 333 333 332 334 333 335 336 336 334 335 335 334 333 331 329 331 329 328 329 331 330 330 329
312 324 325 327 332 335 334 334 336 334 334 335 336 335 336 335 336 335 334 334 334 333 331 330 329 329 329 329 330 330 328 329
321 327 327 330 332 334 334 334 335 335 335 333 334 334 334 335 336 328 336 335 335 334 332 331 330 328 328 328 328 327 326 327
Wind_Speed
4 4 9 9 11 6 5 1 9 5 4 5 2 3 4 7 10 9 7 8 9 11 11 11 11 11 11 11 12 11 11 8
9 7 3 7 8 8 8 6 9 7 4 2 5 7 7 8 10 8 6 7 9 10 11 11 11 10 10 10 11 10 10 7
7 12 13 8 10 9 6 5 5 5 7 6 1 4 8 8 7 7 5 7 8 9 10 10 11 10 11 10 9 8 8 5
15 8 4 7 12 15 10 10 8 8 2 5 3 7 6 8 7 5 4 7 8 10 11 10 11 11 12 11 10 9 10 7
12 8 6 9 11 11 9 5 7 10 4 6 6 5 4 8 6 5 3 6 9 9 10 11 11 10 12 11 11 12 12 13
10 13 10 10 11 13 16 9 9 12 3 9 5 4 9 7 6 4 3 6 7 8 10 10 11 10 11 12 12 14 10 9
16 5 6 10 10 14 15 11 8 9 10 9 5 4 8 8 6 5 3 4 6 9 11 11 11 9 9 11 12 12 11 10
18 14 14 10 9 9 9 6 3 3 7 6 5 8 9 8 7 4 3 3 5 8 11 12 11 10 10 11 14 11 12 10
15 11 14 16 15 13 11 9 8 8 7 5 6 7 8 8 5 3 3 2 4 7 9 10 10 10 12 11 13 10 9 10
9 8 15 4 1 11 12 9 6 7 6 3 7 8 6 3 4 4 4 2 3 5 8 9 9 9 10 11 13 12 9 10
7 13 4 8 7 7 12 9 3 3 8 9 9 11 8 4 4 3 3 2 3 5 4 9 9 9 9 10 13 12 10 10
8 11 11 10 7 3 4 8 5 5 9 12 12 10 6 5 2 2 3 4 4 4 7 8 8 8 8 9 10 11 10 9
9 7 9 5 2 3 10 7 4 4 8 12 10 7 12 8 5 3 5 5 4 4 5 6 7 9 9 8 9 3 5 8
1 4 7 7 4 4 7 3 5 3 6 7 10 9 8 7 6 6 7 8 6 5 6 5 4 6 7 6 6 6 7 6
7 7 5 4 5 4 4 3 5 3 6 8 9 8 6 5 4 4 4 7 6 6 7 7 5 2 7 7 7 6 7 7
3 5 3 3 3 4 2 4 2 5 5 5 6 4 4 3 3 3 4 5 5 5 6 7 6 5 4 5 6 7 6 5
2 4 2 3 4 4 5 2 4 4 5 4 4 4 3 4 4 4 4 5 5 5 4 5 6 5 4 4 4 5 5 5
5 5 5 5 4 2 3 5 6 8 8 5 4 5 3 5 4 3 4 4 3 5 5 4 4 4 3 4 5 6 6 6
4 4 3 4 3 2 3 4 5 7 6 5 4 4 3 4 4 5 1 2 1 3 5 5 4 3 3 4 5 5 4 5
Wind_Direction
205 192 227 168 222 321 277 178 271 192 188 224 159 166 110 78 94 98 131 138 147 156 165 153 152 157 155 160 164 164 165 169
150 172 127 272 173 194 217 249 257 151 254 260 192 163 114 95 100 111 118 134 150 162 156 147 146 146 136 150 164 172 176 178
183 207 200 177 204 241 309 320 304 230 199 108 338 74 109 104 101 102 118 150 161 162 154 152 146 143 134 137 150 142 131 81
211 107 344 304 250 218 233 184 238 305 340 101 84 113 110 107 102 93 128 152 165 172 167 158 153 141 121 137 141 142 123 157
226 199 192 235 208 242 241 274 192 245 174 116 113 129 118 121 119 121 132 159 165 170 176 169 150 140 148 144 138 146 158 166
249 222 200 196 208 211 215 206 184 224 124 165 104 160 140 135 130 149 163 162 163 175 176 167 138 154 153 143 138 143 164 177
245 267 243 232 201 193 220 236 230 220 201 76 67 63 127 150 146 179 174 163 172 178 177 172 152 165 157 142 147 157 166 180
231 228 244 239 210 195 218 219 259 219 134 62 91 119 135 145 164 167 161 125 168 177 180 176 167 162 150 146 151 160 172 168
219 202 225 231 227 208 205 197 223 217 76 121 126 134 139 139 131 114 102 133 164 187 178 176 171 167 157 159 161 162 173 160
225 183 219 172 271 227 221 213 166 108 57 48 130 116 110 89 123 99 43 11 133 186 178 172 160 166 161 166 171 175 180 173
203 211 127 151 157 177 198 166 170 149 89 131 137 136 123 109 52 15 346 343 290 282 240 157 165 162 161 169 174 186 179 185
198 221 213 92 128 158 201 152 45 90 151 168 185 222 120 133 111 86 35 3 341 262 171 155 155 160 163 174 178 192 179 193
189 218 96 69 87 214 209 81 64 139 160 178 202 22 116 140 141 114 93 59 32 58 106 140 160 168 176 179 198 146 116 190
277 233 139 17 204 271 35 80 42 107 149 149 133 135 147 155 156 143 122 105 89 88 91 93 153 175 177 182 121 135 145 172
345 48 44 14 17 24 350 348 53 102 131 149 158 165 172 165 161 121 97 98 111 104 91 69 56 122 163 153 158 162 163 171
240 86 53 28 40 32 13 11 24 124 159 179 188 178 188 148 124 103 98 84 64 80 80 76 61 85 128 160 159 175 174 185
208 129 217 151 60 19 57 85 105 117 131 169 169 178 155 141 114 100 75 65 46 51 70 90 93 93 122 157 188 184 180 184
18 23 303 72 68 45 120 97 86 94 100 99 114 122 143 112 115 107 101 95 83 94 110 109 113 134 148 162 180 179 182 181
52 26 37 85 92 33 75 96 96 85 78 108 88 96 110 118 115 75 84 209 151 94 96 118 145 180 192 173 180 182 199 146